Observer details:
033 Karl Schwarzschild Observatory, Tautenburg.  Observers S. Melnikov, C.
    Hogner, F. Ludwig, M. Hartmann, B. Stecklum.  Measurer B. Stecklum.
    1.34-m f/3 Schmidt + CCD.
104 San Marcello Pistoiese.  Observers P. Bacci, M. Maestripieri.  Measurer P.
    Bacci.  0.60-m f/4 reflector + CCD.
130 Lumezzane.  Observers A. Coffano, W. Marinello, M. Micheli, G. Pizzetti,
    A. Soffiantini.  Measurer W. Marinello.  0.40-m f/6 reflector + CMO.
203 GiaGa Observatory.  Observer G. Galli.  0.36-m f/5.76 Schmidt-Cassegrain +
    CCD.
595 Farra d'Isonzo.  Observers G. Panterotto, E. Pettarin.  Measurer E.
    Pettarin.  0.61-m f/4.5 reflector + CCD.
900 Moriyama.  Observer Y. Ikari.  0.26-m f/7.0 reflector + CMO.
958 Observatoire de Dax.  Observers P. Dupouy, J. B. de Vanssay.  Measurer P.
    Dupouy.  0.43-m f/2.7 Reflector + CCD.
G02 KYSUCE Observatory, Kysucke Nove Mesto.  Observer M. Urbanik.  0.40-m
    f/6.8 Corrected Dall-Kirkham + CCD.
G17 BAS Observatory, Scandicci.  Observer L. Grazzini.  0.20-m f/10 Schmidt-
    Cassegrain + CCD + f/6.3 focal reducer.
I93 St Pardon de Conques.  Observer F. Losse.  0.40-m f/3.7 reflector + CCD.
J57 Centro Astronomico Alto Turia, Valencia.  Observer A. Fornas.  Measurers
    A. Fornas, G. Fornas, E. Arce, V. Mas.  0.43-m f/6.8 Reflector CDK + CMO.
K19 PASTIS Observatory, Banon.  Observer C. Demeautis.  0.28-m f/2.2 reflector
    + CMO.
K62 Teplice Observatory.  Observer Z. Moravec.  0.60-m f/3.3 reflector + CMOS.
K74 Muensterschwarzach Observatory, Schwarzach.  Observer C. Gerhard.  0.30-m
    f/3.75 reflector + CMO.
K78 iota Scorpii Observatory, La Spezia.  Observers G. Scarfi, P. Boongerd.
    0.40-m f/6.1 reflector + CCD.
L01 Visnjan Observatory, Tican.  Observer K. Korlevic.  1.0-m f/2.9 reflector
    + CCD.
L47 Osservatorio Astronomico, Piobbico.  Observers A. Teseo, A. Annamelia.
    Measurer A. Teseo.  0.2-m f/6.3 Schmidt-Cassegrain + CCD.
M17 SN1572 Tycho Observatory, La Spezia.  Observer L. Bertagna.  0.20-m f/4
    reflector + CCD.
M28 Lesedi Telescope-SAAO Observatory, Sutherland.  Observers N. Erasmus, S.
    Potter, C. van Gend, S. Chandra, H. Worters.  Measurers T. Ngwane, N.
    Erasmus.  1.0-m f/8 Reflector + CCD.
M50 Virtual Telescope Project, Manciano.  Observer G. Masi.  0.36-m  f/6.9
    Schmidt-Cassegrain + CCD.
Q06 Tarui Observatory, Tarui.  Observer H. Watanabe.  0.35-m f/1.9 Schmidt-
    Cassegrain + CMO.
T05 ATLAS-HKO, Haleakala.  Observers L. Denneau, R. Siverd, J. Tonry, H.
    Weiland.  Measurers L. Denneau, N. Erasmus, A. Fitzsimmons, A. Lawrence,
    J. Robinson, R. Siverd, J. Tonry, H. Weiland.  0.5-m Reflector + CCD.

Orbital elements:
2024 CD4                                                 Earth MOID = 0.0096 AU
Epoch 2023 Sept. 13.0 TT = JDT 2460200.5                Veres                   
M 271.20739              (2000.0)            P               Q                  
n   0.61873634     Peri.  168.73525     -0.67925436     -0.72743303             
a   1.3639516      Node   323.92699     +0.65986038     -0.54734737             
e   0.2709506      Incl.    9.50520     +0.32124414     -0.41382611             
P   1.59           H   26.77          G   0.15           U   6                  
Residuals in seconds of arc
240211 T05  0.2+  1.2-    240213 M17  0.3+  2.0-    240213 M28  1.1-  1.1+
240211 T05  0.0   1.9+    240213 M17  0.2-  0.1-    240213 M28  0.2-  1.2-
240211 T05 (1.4+  6.8-)   240213 L47  0.3+  0.5+    240213 L01  0.1-  0.2+
240211 T05  0.6+  2.7-    240213 033  0.2+  0.1+    240213 L01  0.2-  0.3+
240211 T05  0.9-  1.7+    240213 L47  0.9-  0.2+    240213 L01  0.2-  0.2+
240213 T05  0.1-  0.1+    240213 033  0.0   0.4+    240213 L01  0.3-  0.2+
240213 T05  0.1-  0.1+    240213 033  0.1-  0.6+    240213 L01  0.2-  0.2+
240213 T05  0.2-  0.6-    240213 033  0.1+  0.2-    240213 G17  0.5-  0.6+
240213 T05  0.1+  0.3+    240213 J57  0.1+  0.2-    240213 K62  0.1+  0.1+
240213 Q06  0.2+  0.5+    240213 J57  0.0   0.5-    240213 K62  0.3+  0.1+
240213 Q06  0.3-  0.1+    240213 958  0.2-  0.1+    240213 K62  0.2+  0.2-
240213 Q06  0.2-  0.6+    240213 J57  0.0   0.6-    240213 K62  0.1+  0.1-
240213 900  0.2+  0.0     240213 958  0.1-  0.1-    240213 I93  0.1+  0.7-
240213 900  0.1+  0.1-    240213 595  0.0   0.0     240213 I93  0.1+  0.7-
240213 900  0.2+  0.1+    240213 958  0.0   0.0     240213 203  0.1+  0.4+
240213 900  0.2+  0.1+    240213 K19  0.1-  0.1-    240213 I93  0.3+  0.7-
240213 900  0.1+  0.1+    240213 595  0.4-  0.2-    240213 203  0.1-  0.1+
240213 G02  0.2+  0.9-    240213 K19  0.1-  0.7+    240213 203  0.2+  0.2-
240213 G02  0.3-  0.6-    240213 K19  0.0   0.5+    240213 104  0.1-  0.1+
240213 G02  0.3+  2.6-    240213 595  0.3-  0.1+    240213 104  0.1-  0.1+
240213 K74  0.1+  0.1-    240213 G17  0.0   0.3+    240213 104  0.1-  0.0
240213 K74  0.0   0.2+    240213 L47  0.4-  1.6-    240213 130  0.2+  0.1+
240213 K74  0.1-  0.4+    240213 K78  0.1-  0.5+    240213 130  0.0   0.3-
240213 K74  0.2-  0.3+    240213 K78  0.1+  0.6+    240213 130  0.1-  0.0
240213 K74  0.2-  0.3+    240213 L47  0.2-  0.4-    240213 130  0.1-  0.2+
240213 L47  0.4+  0.3-    240213 L47  0.2-  0.2-    240213 M50  0.3+  0.8-
240213 M17  1.5+  0.7-    240213 G17  0.3-  0.2+    240213 M50  0.3+  0.4-
240213 L47  0.6-  0.6-    240213 K78  0.5-  0.7+

Ephemeris:
2024 CD4                 a,e,i = 1.36, 0.27, 10                  q = 0.9944
Date    TT    R. A. (2000) Decl.     Delta      r    Elong.  Phase     V
2024 01 15    23 48 59.3 +71 17 45   0.1035  1.0095   101.6    72.6    24.4
...
2024 01 30    00 36 31.7 +75 13 16   0.05294 0.9952    99.6    77.4    23.1
...
2024 02 07    04 39 02.2 +78 19 28   0.02543 0.9948   109.3    69.3    21.2
...
2024 02 13    09 02 10.9 +26 01 21   0.01117 0.9980   164.4    15.4    17.9
2024 02 14    09 18 06.9 +07 45 16   0.01150 0.9987   171.0     8.9    17.7
2024 02 15    09 30 38.7 -07 58 35   0.01293 0.9996   158.4    21.3    18.4
...
2024 02 21    10 10 43.9 -44 59 55   0.03078 1.0063   124.1    54.5    21.2
...
2024 02 29    10 30 52.8 -54 09 59   0.05900 1.0194   117.8    59.3    22.8
...
2024 03 15    10 45 42.3 -56 32 51   0.1120  1.0554   120.3    54.5    24.1

M. P. C. Staff               (C) Copyright 2024 MPC           M.P.E.C. 2024-C155





More information about the Iaude mailing list